Terug naar catalogus

STARLINK-34158

ActiefCommunicatieVLEO
NORAD 63996·PAYLOAD·🇺🇸 United States

Gelanceerd May 14, 2025 vanaf Cape Canaveral Space Force Station

Loading…

Volgende Passages (komende 24 uur)

TLE

VersSource: CelesTrak SupGP

Epoch: Sep 15, 2026, 03:35 UTC

1 63996C 25101C   26258.14979167  .00037438  00000+0  13557-2 0  2584
2 63996  43.0037   7.8809 0001513 268.0844  50.0029 15.27566847    14

Volg STARLINK-34158 in realtime met AllMySat

Download on the App Store